Regional Weather Roundup
Issued by NWS

Home | Current Version | Previous Version | Graphics & Text | Print | Product List | Glossary On
Versions: 1 2 3 4 5 6 7 8 9 10 11 12 13 14 15 16 17 18 19 20 21 22 23 24 25 26 27 28 29 30 31 32 33 34 35 36 37 38 39 40 41 42 43 44 45 46 47 48 49 50
000
ASUS45 KABQ 190810
RWRNM
WEATHER ROUNDUP FOR NEW MEXICO
NATIONAL WEATHER SERVICE ALBUQUERQUE NM
200 AM MDT SUN APR 19 2015

NOTE: "FAIR" MEANS FEW OR NO CLOUDS BELOW 12,000 FEET AGL WITH NO
       SIGNIFICANT WEATHER OR OBSTRUCTIONS TO VISION.

      THIS PRODUCT IS RELEASED AS TWO VERSIONS.  ONE VERSION NEAR
      THE TOP OF THE HOUR CONTAINING PRELIMINARY DATA FROM ALBUQUERQUE
      AND OTHER STATIONS.  A FINAL VERSION WITH ADDITIONAL DATA IS
      ISSUED ABOUT 10 MINUTES AFTER THE HOUR.

NMZ501-503-504-510>518-190900-
NORTHWEST PLATEAU/NORTHCENTRAL MOUNTAINS

CITY           SKY/WX    TMP DP  RH WIND       PRES   REMARKS
FARMINGTON     PTCLDY    42  35  76 W10       29.99F
LOS ALAMOS     CLOUDY    43  27  53 E5        30.01R
SANTA FE       CLEAR     37  28  70 N10       29.97R WCI  30
ANGEL FIRE     FAIR      31  25  78 CALM      30.02S

$$
NMZ402-403-502-505>509-190900-
WESTCENTRAL MOUNTAINS/SOUTHWEST MOUNTAINS

CITY           SKY/WX    TMP DP  RH WIND       PRES   REMARKS
GALLUP         PTCLDY    35  27  72 CALM      30.07S
GRANTS         CLEAR     39  29  68 N6        30.06F WCI  35
SILVER CITY      N/A     41  18  38 NW9       30.05F

$$
NMZ407-409-411-412-190900-
SOUTHERN DESERTS

CITY           SKY/WX    TMP DP  RH WIND       PRES   REMARKS
LORDSBURG      FAIR      45  12  26 CALM      30.01S
DEMING         CLEAR     50  18  28 SW6       30.00S
LAS CRUCES     CLEAR     53  17  24 W10       29.98F
HOLLOMAN AFB   CLEAR     49  27  43 N6        29.92S
ALAMOGORDO     CLEAR     54  28  37 NE8       29.94R
T OR C         CLEAR     53  25  33 NW8       29.97S

$$
NMZ519>523-190900-
CENTRAL VALLEYS/CENTRAL HIGHLANDS

CITY           SKY/WX    TMP DP  RH WIND       PRES   REMARKS
ALBUQUERQUE    MOCLDY    52  29  41 N8        29.99R
DOUBLE EAGLE   PTCLDY    42  28  56 NW3       30.00R
MORIARTY ARPT  FAIR      46  26  46 NW12      29.97S
CLINES CORNERS CLEAR     40  26  57 W15       29.95R WCI  32
BELEN          FAIR      43  20  41 NW10      29.98R
SOCORRO        FAIR      44  22  41 NE5       29.96S

$$
NMZ524>526-539-540-190900-
SOUTHCENTRAL MOUNTAINS

CITY           SKY/WX    TMP DP  RH WIND       PRES   REMARKS
RUIDOSO        CLEAR     45  19  36 NW9       30.01S

$$
NMZ527>531-190900-
NORTHEAST HIGHLANDS/NORTHEAST PLAINS

CITY           SKY/WX    TMP DP  RH WIND       PRES   REMARKS
LAS VEGAS      PTCLDY    38  25  59 NE8       29.96R WCI  32
RATON          LGT RAIN  36  32  85 N7G20     29.97S WCI  30
CLAYTON        CLEAR     40  32  73 W9        29.91R WCI  34

$$
NMZ532>537-190900-
EASTCENTRAL PLAINS

CITY           SKY/WX    TMP DP  RH WIND       PRES   REMARKS
TUCUMCARI      MOCLDY    44  28  53 NW8       29.88R
CANNON AFB     NOT AVBL
CLOVIS AIRPORT CLEAR     45  27  49 NW13      29.87R

$$
NMZ028-029-538-190900-
SOUTHEAST PLAINS

CITY           SKY/WX    TMP DP  RH WIND       PRES   REMARKS
ROSWELL        CLEAR     51  32  48 W8        29.88S
ARTESIA        CLEAR     52  34  50 NW7       29.89S
CARLSBAD       CLEAR     54  33  45 W8        29.86F
HOBBS          CLEAR     54  32  43 NW15      29.86F


$$


USA.gov is the U.S. government's official web portal to all federal, state and local government web resources and services.